Time,TemperatureF,DewpointF,PressureIn,WindDirection,WindDirectionDegrees,WindSpeedMPH,WindSpeedGustMPH,Humidity,HourlyPrecipIn,Conditions,Clouds,dailyrainin,SoftwareType,DateUTC
2013-09-11 00:01:00,72.5,54.9,30.12,NNE,25,0.0,0.0,54,0.00,,---,0.00,VWS V14.01,2013-09-11 04:01:00,
2013-09-11 00:02:00,72.5,54.9,30.12,NNE,24,0.0,0.0,54,0.00,,---,0.00,VWS V14.01,2013-09-11 04:02:00,
2013-09-11 00:07:00,72.5,54.9,30.12,NNE,24,0.0,0.0,54,0.00,,---,0.00,VWS V14.01,2013-09-11 04:07:00,
2013-09-11 00:12:00,72.3,54.8,30.12,NNE,24,0.0,0.0,54,0.00,,---,0.00,VWS V14.01,2013-09-11 04:12:00,
2013-09-11 00:17:00,72.3,55.3,30.12,NNE,24,0.0,0.0,55,0.00,,---,0.00,VWS V14.01,2013-09-11 04:17:00,
2013-09-11 00:22:00,72.1,55.1,30.12,NNE,24,0.0,0.0,55,0.00,,---,0.00,VWS V14.01,2013-09-11 04:22:00,
2013-09-11 00:27:00,72.0,54.9,30.12,NNE,24,0.0,0.0,55,0.00,,---,0.00,VWS V14.01,2013-09-11 04:27:00,
2013-09-11 00:32:00,72.0,54.9,30.12,NNE,24,0.0,0.0,55,0.00,,---,0.00,VWS V14.01,2013-09-11 04:32:00,
2013-09-11 00:37:00,71.8,54.8,30.12,NNE,24,0.0,0.0,55,0.00,,---,0.00,VWS V14.01,2013-09-11 04:37:00,
2013-09-11 00:42:00,71.8,54.8,30.12,NNE,24,0.0,0.0,55,0.00,,---,0.00,VWS V14.01,2013-09-11 04:42:00,
2013-09-11 00:47:00,71.6,55.1,30.12,NNE,24,0.0,0.0,56,0.00,,---,0.00,VWS V14.01,2013-09-11 04:47:00,
2013-09-11 00:52:00,71.6,55.1,30.12,NNE,24,0.0,0.0,56,0.00,,---,0.00,VWS V14.01,2013-09-11 04:52:00,
2013-09-11 00:57:00,71.4,54.9,30.12,NNE,24,0.0,0.0,56,0.00,,---,0.00,VWS V14.01,2013-09-11 04:57:00,
2013-09-11 01:02:00,71.4,54.9,30.09,NNE,25,0.0,0.0,56,0.00,,---,0.00,VWS V14.01,2013-09-11 05:02:00,
2013-09-11 01:07:00,71.4,54.9,30.09,NNE,24,0.0,0.0,56,0.00,,---,0.00,VWS V14.01,2013-09-11 05:07:00,
2013-09-11 01:12:00,71.2,55.2,30.09,NNE,24,0.0,0.0,57,0.00,,---,0.00,VWS V14.01,2013-09-11 05:12:00,
2013-09-11 01:17:00,71.2,55.2,30.09,NNE,24,0.0,0.0,57,0.00,,---,0.00,VWS V14.01,2013-09-11 05:17:00,
2013-09-11 01:22:00,71.2,55.2,30.09,NNE,24,0.0,0.0,57,0.00,,---,0.00,VWS V14.01,2013-09-11 05:22:00,
2013-09-11 01:27:00,71.2,55.2,30.09,NNE,24,0.0,0.0,57,0.00,,---,0.00,VWS V14.01,2013-09-11 05:27:00,
2013-09-11 01:32:00,71.1,55.1,30.09,NNE,24,0.0,0.0,57,0.00,,---,0.00,VWS V14.01,2013-09-11 05:32:00,
2013-09-11 01:37:00,71.1,55.1,30.09,NNE,24,0.0,0.0,57,0.00,,---,0.00,VWS V14.01,2013-09-11 05:37:00,
2013-09-11 01:42:00,70.9,55.4,30.09,NNE,25,0.0,0.0,58,0.00,,---,0.00,VWS V14.01,2013-09-11 05:42:00,
2013-09-11 01:47:00,70.9,55.4,30.09,NNE,24,0.0,0.0,58,0.00,,---,0.00,VWS V14.01,2013-09-11 05:47:00,
2013-09-11 01:52:00,70.9,55.4,30.09,NNE,24,0.0,0.0,58,0.00,,---,0.00,VWS V14.01,2013-09-11 05:52:00,
2013-09-11 01:57:00,70.9,55.4,30.09,NNE,24,0.0,0.0,58,0.00,,---,0.00,VWS V14.01,2013-09-11 05:57:00,
2013-09-11 02:02:00,70.9,55.4,30.09,NNE,24,0.0,0.0,58,0.00,,---,0.00,VWS V14.01,2013-09-11 06:02:00,
2013-09-11 02:07:00,70.9,55.8,30.09,NNE,24,0.0,0.0,59,0.00,,---,0.00,VWS V14.01,2013-09-11 06:07:00,
2013-09-11 02:12:00,70.9,55.8,30.09,NNE,24,0.0,0.0,59,0.00,,---,0.00,VWS V14.01,2013-09-11 06:12:00,
2013-09-11 02:17:00,70.9,56.3,30.09,NNE,24,0.0,0.0,60,0.00,,---,0.00,VWS V14.01,2013-09-11 06:17:00,
2013-09-11 02:22:00,71.1,56.5,30.09,NNE,25,0.0,0.0,60,0.00,,---,0.00,VWS V14.01,2013-09-11 06:22:00,
2013-09-11 02:27:00,71.1,56.5,30.09,NNE,24,0.0,0.0,60,0.00,,---,0.00,VWS V14.01,2013-09-11 06:27:00,
2013-09-11 02:32:00,71.2,56.7,30.09,NNE,24,0.0,0.0,60,0.00,,---,0.00,VWS V14.01,2013-09-11 06:32:00,
2013-09-11 02:37:00,71.2,57.1,30.09,NNE,25,0.0,0.0,61,0.00,,---,0.00,VWS V14.01,2013-09-11 06:37:00,
2013-09-11 02:42:00,71.2,57.1,30.09,NNE,24,0.0,0.0,61,0.00,,---,0.00,VWS V14.01,2013-09-11 06:42:00,
2013-09-11 02:47:00,71.2,57.1,30.09,NNE,24,0.0,0.0,61,0.00,,---,0.00,VWS V14.01,2013-09-11 06:47:00,
2013-09-11 02:52:00,71.2,57.1,30.09,NNE,24,0.0,0.0,61,0.00,,---,0.00,VWS V14.01,2013-09-11 06:52:00,
2013-09-11 02:57:00,71.1,57.0,30.09,NNE,25,0.0,0.0,61,0.00,,---,0.00,VWS V14.01,2013-09-11 06:57:00,
2013-09-11 03:02:00,71.1,57.4,30.09,NNE,24,0.0,0.0,62,0.00,,---,0.00,VWS V14.01,2013-09-11 07:02:00,
2013-09-11 03:07:00,71.1,57.4,30.09,NNE,24,0.0,0.0,62,0.00,,---,0.00,VWS V14.01,2013-09-11 07:07:00,
2013-09-11 03:12:00,71.1,57.4,30.09,NNE,24,0.0,0.0,62,0.00,,---,0.00,VWS V14.01,2013-09-11 07:12:00,
2013-09-11 03:17:00,71.1,57.4,30.06,NNE,24,0.0,0.0,62,0.00,,---,0.00,VWS V14.01,2013-09-11 07:17:00,
2013-09-11 03:22:00,71.1,57.4,30.06,NNE,24,0.0,0.0,62,0.00,,---,0.00,VWS V14.01,2013-09-11 07:22:00,
2013-09-11 03:27:00,71.1,57.4,30.06,NNE,24,0.0,0.0,62,0.00,,---,0.00,VWS V14.01,2013-09-11 07:27:00,
2013-09-11 03:32:00,71.1,57.4,30.06,NNE,24,0.0,0.0,62,0.00,,---,0.00,VWS V14.01,2013-09-11 07:32:00,
2013-09-11 03:37:00,71.1,57.4,30.06,NNE,24,0.0,0.0,62,0.00,,---,0.00,VWS V14.01,2013-09-11 07:37:00,
2013-09-11 03:42:00,71.2,58.0,30.06,NNE,24,0.0,0.0,63,0.00,,---,0.00,VWS V14.01,2013-09-11 07:42:00,
2013-09-11 03:47:00,71.2,58.0,30.06,NNE,24,0.0,0.0,63,0.00,,---,0.00,VWS V14.01,2013-09-11 07:47:00,
2013-09-11 03:52:00,71.4,58.2,30.06,NNE,24,0.0,0.0,63,0.00,,---,0.00,VWS V14.01,2013-09-11 07:52:00,
2013-09-11 03:57:00,71.4,58.6,30.06,NNE,24,0.0,0.0,64,0.00,,---,0.00,VWS V14.01,2013-09-11 07:57:00,
2013-09-11 04:02:00,71.4,58.6,30.06,NNE,24,0.0,0.0,64,0.00,,---,0.00,VWS V14.01,2013-09-11 08:02:00,
2013-09-11 04:07:00,71.6,58.3,30.06,NNE,24,0.0,0.0,63,0.00,,---,0.00,VWS V14.01,2013-09-11 08:07:00,
2013-09-11 04:12:00,71.6,58.3,30.06,NNE,24,0.0,0.0,63,0.00,,---,0.00,VWS V14.01,2013-09-11 08:12:00,
2013-09-11 04:17:00,72.0,60.8,30.06,NNE,24,0.0,0.0,68,0.00,,---,0.00,VWS V14.01,2013-09-11 08:17:00,
2013-09-11 04:22:00,72.0,60.0,30.06,NNE,24,0.0,0.0,66,0.00,,---,0.00,VWS V14.01,2013-09-11 08:22:00,
2013-09-11 04:27:00,72.0,60.0,30.06,NNE,24,0.0,0.0,66,0.00,,---,0.00,VWS V14.01,2013-09-11 08:27:00,
2013-09-11 04:32:00,72.0,60.0,30.06,NNE,24,0.0,0.0,66,0.00,,---,0.00,VWS V14.01,2013-09-11 08:32:00,
2013-09-11 04:37:00,72.0,60.0,30.06,NNE,24,0.0,0.0,66,0.00,,---,0.00,VWS V14.01,2013-09-11 08:37:00,
2013-09-11 04:42:00,72.0,60.0,30.06,NNE,24,0.0,0.0,66,0.00,,---,0.00,VWS V14.01,2013-09-11 08:42:00,
2013-09-11 04:47:00,72.0,60.0,30.06,NNE,24,0.0,0.0,66,0.00,,---,0.00,VWS V14.01,2013-09-11 08:47:00,
2013-09-11 04:52:00,71.8,59.8,30.06,NNE,24,0.0,0.0,66,0.00,,---,0.00,VWS V14.01,2013-09-11 08:52:00,
2013-09-11 04:57:00,71.8,59.8,30.06,NNE,24,0.0,0.0,66,0.00,,---,0.00,VWS V14.01,2013-09-11 08:57:00,
2013-09-11 05:02:00,71.8,59.8,30.06,NNE,24,0.0,0.0,66,0.00,,---,0.00,VWS V14.01,2013-09-11 09:02:00,
2013-09-11 05:07:00,71.8,59.8,30.06,NNE,24,0.0,0.0,66,0.00,,---,0.00,VWS V14.01,2013-09-11 09:07:00,
2013-09-11 05:12:00,71.6,59.7,30.06,NNE,24,0.0,0.0,66,0.00,,---,0.00,VWS V14.01,2013-09-11 09:12:00,
2013-09-11 05:17:00,71.6,59.7,30.06,NNE,24,0.0,0.0,66,0.00,,---,0.00,VWS V14.01,2013-09-11 09:17:00,
2013-09-11 05:22:00,71.8,59.8,30.06,NNE,24,0.0,0.0,66,0.00,,---,0.00,VWS V14.01,2013-09-11 09:22:00,
2013-09-11 05:27:00,71.6,59.7,30.06,NNE,24,0.0,0.0,66,0.00,,---,0.00,VWS V14.01,2013-09-11 09:27:00,
2013-09-11 05:32:00,71.6,59.7,30.06,NNE,24,0.0,0.0,66,0.00,,---,0.00,VWS V14.01,2013-09-11 09:32:00,
2013-09-11 05:37:00,71.6,59.7,30.06,NNE,24,0.0,0.0,66,0.00,,---,0.00,VWS V14.01,2013-09-11 09:37:00,
2013-09-11 05:42:00,71.8,59.8,30.06,NNE,24,0.0,0.0,66,0.00,,---,0.00,VWS V14.01,2013-09-11 09:42:00,
2013-09-11 05:47:00,71.8,60.2,30.06,NNE,24,0.0,0.0,67,0.00,,---,0.00,VWS V14.01,2013-09-11 09:47:00,
2013-09-11 05:52:00,71.8,60.2,30.06,NNE,24,0.0,0.0,67,0.00,,---,0.00,VWS V14.01,2013-09-11 09:52:00,
2013-09-11 05:57:00,71.8,60.2,30.06,NNE,24,0.0,0.0,67,0.00,,---,0.00,VWS V14.01,2013-09-11 09:57:00,
2013-09-11 06:02:00,71.8,60.2,30.06,NE,39,0.0,0.0,67,0.00,,---,0.00,VWS V14.01,2013-09-11 10:02:00,
2013-09-11 06:07:00,72.0,60.4,30.06,NE,39,0.0,0.0,67,0.00,,---,0.00,VWS V14.01,2013-09-11 10:07:00,
2013-09-11 06:12:00,72.0,60.4,30.06,North,357,0.0,0.0,67,0.00,,---,0.00,VWS V14.01,2013-09-11 10:12:00,
2013-09-11 06:17:00,72.0,60.8,30.06,North,357,0.0,0.0,68,0.00,,---,0.00,VWS V14.01,2013-09-11 10:17:00,
2013-09-11 06:22:00,72.0,60.8,30.06,North,357,0.0,0.0,68,0.00,,---,0.00,VWS V14.01,2013-09-11 10:22:00,
2013-09-11 06:27:00,72.0,60.8,30.06,North,357,0.0,0.0,68,0.00,,---,0.00,VWS V14.01,2013-09-11 10:27:00,
2013-09-11 06:32:00,72.0,60.8,30.06,North,357,0.0,0.0,68,0.00,,---,0.00,VWS V14.01,2013-09-11 10:32:00,
2013-09-11 06:37:00,72.0,60.8,30.06,North,357,0.0,0.0,68,0.00,,---,0.00,VWS V14.01,2013-09-11 10:37:00,
2013-09-11 06:42:00,72.0,60.8,30.06,North,357,0.0,0.0,68,0.00,,---,0.00,VWS V14.01,2013-09-11 10:42:00,
2013-09-11 06:47:00,72.0,60.8,30.06,North,357,0.0,0.0,68,0.00,,---,0.00,VWS V14.01,2013-09-11 10:47:00,
2013-09-11 06:52:00,72.0,60.8,30.06,North,357,0.0,0.0,68,0.00,,---,0.00,VWS V14.01,2013-09-11 10:52:00,
2013-09-11 06:57:00,71.8,60.7,30.06,North,357,0.0,0.0,68,0.00,,---,0.00,VWS V14.01,2013-09-11 10:57:00,
2013-09-11 07:02:00,71.8,60.7,30.09,North,357,0.0,0.0,68,0.00,,---,0.00,VWS V14.01,2013-09-11 11:02:00,
2013-09-11 07:07:00,71.8,60.7,30.09,North,357,0.0,0.0,68,0.00,,---,0.00,VWS V14.01,2013-09-11 11:07:00,
2013-09-11 07:12:00,71.8,60.7,30.09,North,0,0.0,0.0,68,0.00,,---,0.00,VWS V14.01,2013-09-11 11:12:00,
2013-09-11 07:17:00,71.6,60.5,30.09,North,0,0.0,0.0,68,0.00,,---,0.00,VWS V14.01,2013-09-11 11:17:00,
2013-09-11 07:22:00,71.6,60.5,30.09,North,0,0.0,0.0,68,0.00,,---,0.00,VWS V14.01,2013-09-11 11:22:00,
2013-09-11 07:27:00,71.4,60.7,30.09,North,0,0.0,0.0,69,0.00,,---,0.00,VWS V14.01,2013-09-11 11:27:00,
2013-09-11 07:32:00,71.4,60.7,30.09,North,0,0.0,0.0,69,0.00,,---,0.00,VWS V14.01,2013-09-11 11:32:00,
2013-09-11 07:37:00,71.4,60.7,30.09,North,0,0.0,0.0,69,0.00,,---,0.00,VWS V14.01,2013-09-11 11:37:00,
2013-09-11 07:42:00,71.4,60.7,30.09,North,0,0.0,0.0,69,0.00,,---,0.00,VWS V14.01,2013-09-11 11:42:00,
2013-09-11 07:47:00,71.4,60.7,30.09,North,0,0.0,0.0,69,0.00,,---,0.00,VWS V14.01,2013-09-11 11:47:00,
2013-09-11 07:52:00,71.4,61.1,30.09,North,0,0.0,0.0,70,0.00,,---,0.00,VWS V14.01,2013-09-11 11:52:00,
2013-09-11 07:57:00,71.6,60.9,30.09,East,83,0.0,0.0,69,0.00,,---,0.00,VWS V14.01,2013-09-11 11:57:00,
2013-09-11 08:02:00,71.6,61.3,30.09,East,83,0.0,0.0,70,0.00,,---,0.00,VWS V14.01,2013-09-11 12:02:00,
2013-09-11 08:07:00,71.8,61.5,30.09,East,83,0.0,0.0,70,0.00,,---,0.00,VWS V14.01,2013-09-11 12:07:00,
2013-09-11 08:12:00,71.8,61.5,30.09,East,83,0.0,0.0,70,0.00,,---,0.00,VWS V14.01,2013-09-11 12:12:00,
2013-09-11 08:17:00,72.0,61.7,30.09,East,83,0.0,0.0,70,0.00,,---,0.00,VWS V14.01,2013-09-11 12:17:00,
2013-09-11 08:22:00,72.1,62.2,30.09,East,83,0.0,0.0,71,0.00,,---,0.00,VWS V14.01,2013-09-11 12:22:00,
2013-09-11 08:27:00,72.5,62.6,30.09,NE,42,0.0,3.6,71,0.00,,---,0.00,VWS V14.01,2013-09-11 12:27:00,
2013-09-11 08:32:00,72.7,62.7,30.09,NE,42,0.0,0.0,71,0.00,,---,0.00,VWS V14.01,2013-09-11 12:32:00,
2013-09-11 08:37:00,72.9,63.3,30.09,ENE,70,0.0,0.0,72,0.00,,---,0.00,VWS V14.01,2013-09-11 12:37:00,
2013-09-11 08:42:00,73.0,63.5,30.09,NNE,25,0.0,0.0,72,0.00,,---,0.00,VWS V14.01,2013-09-11 12:42:00,
2013-09-11 08:47:00,73.2,63.7,30.09,NNE,25,0.0,0.0,72,0.00,,---,0.00,VWS V14.01,2013-09-11 12:47:00,
2013-09-11 08:52:00,73.4,63.4,30.09,NNE,25,0.0,0.0,71,0.00,,---,0.00,VWS V14.01,2013-09-11 12:52:00,
2013-09-11 08:57:00,73.4,63.4,30.09,North,2,0.0,0.0,71,0.00,,---,0.00,VWS V14.01,2013-09-11 12:57:00,
2013-09-11 09:02:00,73.6,64.0,30.09,North,2,0.0,0.0,72,0.00,,---,0.00,VWS V14.01,2013-09-11 13:02:00,
2013-09-11 09:07:00,73.6,64.0,30.09,NNE,17,0.0,0.0,72,0.00,,---,0.00,VWS V14.01,2013-09-11 13:07:00,
2013-09-11 09:12:00,73.9,64.8,30.09,NNE,16,0.0,0.0,73,0.00,,---,0.00,VWS V14.01,2013-09-11 13:12:00,
2013-09-11 09:17:00,74.5,65.7,30.09,North,357,0.0,0.0,74,0.00,,---,0.00,VWS V14.01,2013-09-11 13:17:00,
2013-09-11 09:22:00,75.2,66.7,30.09,NE,51,0.0,0.0,75,0.00,,---,0.00,VWS V14.01,2013-09-11 13:22:00,
2013-09-11 09:27:00,75.7,66.9,30.09,WNW,285,0.0,0.0,74,0.00,,---,0.00,VWS V14.01,2013-09-11 13:27:00,
2013-09-11 09:32:00,76.3,67.8,30.09,SE,132,0.0,0.0,75,0.00,,---,0.00,VWS V14.01,2013-09-11 13:32:00,
2013-09-11 09:37:00,77.0,68.1,30.09,North,11,3.1,3.1,74,0.00,,---,0.00,VWS V14.01,2013-09-11 13:37:00,
2013-09-11 09:42:00,77.7,68.4,30.09,North,3,2.7,2.7,73,0.00,,---,0.00,VWS V14.01,2013-09-11 13:42:00,
2013-09-11 09:47:00,78.4,69.1,30.09,East,81,0.0,0.0,73,0.00,,---,0.00,VWS V14.01,2013-09-11 13:47:00,
2013-09-11 09:52:00,78.8,68.6,30.09,ENE,64,2.7,2.7,71,0.00,,---,0.00,VWS V14.01,2013-09-11 13:52:00,
2013-09-11 09:57:00,79.3,67.0,30.09,ENE,65,0.0,2.7,66,0.00,,---,0.00,VWS V14.01,2013-09-11 13:57:00,
2013-09-11 10:02:00,80.1,67.7,30.09,NE,45,7.6,7.6,66,0.00,,---,0.00,VWS V14.01,2013-09-11 14:02:00,
2013-09-11 10:07:00,80.6,67.8,30.09,ENE,59,0.0,2.7,65,0.00,,---,0.00,VWS V14.01,2013-09-11 14:07:00,
2013-09-11 10:12:00,81.0,68.1,30.09,NW,321,4.9,5.4,65,0.00,,---,0.00,VWS V14.01,2013-09-11 14:12:00,
2013-09-11 10:17:00,81.1,67.4,30.09,NE,52,0.0,0.0,63,0.00,,---,0.00,VWS V14.01,2013-09-11 14:17:00,
2013-09-11 10:22:00,81.5,67.7,30.09,East,97,0.0,2.7,63,0.00,,---,0.00,VWS V14.01,2013-09-11 14:22:00,
2013-09-11 10:27:00,81.7,66.0,30.09,SSE,154,2.7,4.9,59,0.00,,---,0.00,VWS V14.01,2013-09-11 14:27:00,
2013-09-11 10:32:00,82.2,67.9,30.09,ESE,112,2.7,4.9,62,0.00,,---,0.00,VWS V14.01,2013-09-11 14:32:00,
2013-09-11 10:37:00,82.6,66.3,30.09,SE,142,2.7,4.0,58,0.00,,---,0.00,VWS V14.01,2013-09-11 14:37:00,
2013-09-11 10:42:00,82.8,67.0,30.09,East,100,3.1,4.0,59,0.00,,---,0.00,VWS V14.01,2013-09-11 14:42:00,
2013-09-11 10:47:00,82.8,65.0,30.09,NE,56,2.7,3.1,55,0.00,,---,0.00,VWS V14.01,2013-09-11 14:47:00,
2013-09-11 10:52:00,82.8,65.5,30.09,SW,225,2.7,5.4,56,0.00,,---,0.00,VWS V14.01,2013-09-11 14:52:00,
2013-09-11 10:57:00,82.9,65.7,30.09,ESE,122,4.9,6.3,56,0.00,,---,0.00,VWS V14.01,2013-09-11 14:57:00,
2013-09-11 11:02:00,83.1,63.7,30.09,NNE,23,3.1,5.8,52,0.00,,---,0.00,VWS V14.01,2013-09-11 15:02:00,
2013-09-11 11:07:00,83.3,65.5,30.09,ESE,123,4.0,4.0,55,0.00,,---,0.00,VWS V14.01,2013-09-11 15:07:00,
2013-09-11 11:12:00,83.3,63.3,30.09,NE,49,3.1,3.1,51,0.00,,---,0.00,VWS V14.01,2013-09-11 15:12:00,
2013-09-11 11:18:00,83.5,62.9,30.09,East,91,2.7,4.0,50,0.00,,---,0.00,VWS V14.01,2013-09-11 15:18:00,
2013-09-11 11:23:00,83.5,62.9,30.09,NE,34,2.7,2.7,50,0.00,,---,0.00,VWS V14.01,2013-09-11 15:23:00,
2013-09-11 11:28:00,83.3,62.7,30.09,WNW,292,2.7,3.6,50,0.00,,---,0.00,VWS V14.01,2013-09-11 15:28:00,
2013-09-11 11:33:00,83.7,63.1,30.09,East,97,4.0,4.0,50,0.00,,---,0.00,VWS V14.01,2013-09-11 15:33:00,
2013-09-11 11:38:00,83.7,62.5,30.09,ENE,72,3.1,4.0,49,0.00,,---,0.00,VWS V14.01,2013-09-11 15:38:00,
2013-09-11 11:43:00,83.7,63.1,30.09,South,171,4.0,4.0,50,0.00,,---,0.00,VWS V14.01,2013-09-11 15:43:00,
2013-09-11 11:48:00,83.8,63.2,30.09,ENE,59,3.6,3.6,50,0.00,,---,0.00,VWS V14.01,2013-09-11 15:48:00,
2013-09-11 11:53:00,84.4,63.2,30.09,SW,217,2.7,6.3,49,0.00,,---,0.00,VWS V14.01,2013-09-11 15:53:00,
2013-09-11 11:58:00,84.7,64.1,30.09,ENE,59,4.9,4.9,50,0.00,,---,0.00,VWS V14.01,2013-09-11 15:58:00,
2013-09-11 12:03:00,84.6,63.3,30.09,NW,310,0.0,2.2,49,0.00,,---,0.00,VWS V14.01,2013-09-11 16:03:00,
2013-09-11 12:08:00,84.9,63.7,30.09,North,0,0.0,0.0,49,0.00,,---,0.00,VWS V14.01,2013-09-11 16:08:00,
2013-09-11 12:13:00,85.1,63.8,30.09,WSW,240,2.7,4.0,49,0.00,,---,0.00,VWS V14.01,2013-09-11 16:13:00,
2013-09-11 12:18:00,85.3,62.8,30.09,North,353,4.0,4.9,47,0.00,,---,0.00,VWS V14.01,2013-09-11 16:18:00,
2013-09-11 12:23:00,85.5,61.1,30.09,NE,44,2.2,4.0,44,0.00,,---,0.00,VWS V14.01,2013-09-11 16:23:00,
2013-09-11 12:28:00,85.3,62.2,30.09,ENE,63,0.0,2.7,46,0.00,,---,0.00,VWS V14.01,2013-09-11 16:28:00,
2013-09-11 12:33:00,85.5,63.0,30.09,ENE,65,0.0,0.0,47,0.00,,---,0.00,VWS V14.01,2013-09-11 16:33:00,
2013-09-11 12:38:00,84.9,60.0,30.09,East,80,0.0,0.0,43,0.00,,---,0.00,VWS V14.01,2013-09-11 16:38:00,
2013-09-11 12:43:00,84.2,59.3,30.09,NE,39,6.3,6.3,43,0.00,,---,0.00,VWS V14.01,2013-09-11 16:43:00,
2013-09-11 12:48:00,83.8,59.0,30.09,East,88,3.6,3.6,43,0.00,,---,0.00,VWS V14.01,2013-09-11 16:48:00,
2013-09-11 12:53:00,84.2,60.0,30.09,East,85,2.7,3.6,44,0.00,,---,0.00,VWS V14.01,2013-09-11 16:53:00,
2013-09-11 12:58:00,84.7,60.4,30.09,East,92,3.6,4.0,44,0.00,,---,0.00,VWS V14.01,2013-09-11 16:58:00,
2013-09-11 13:03:00,85.5,60.4,30.09,NE,44,2.7,3.6,43,0.00,,---,0.00,VWS V14.01,2013-09-11 17:03:00,
2013-09-11 13:08:00,86.2,60.4,30.09,North,1,0.0,0.0,42,0.00,,---,0.00,VWS V14.01,2013-09-11 17:08:00,
2013-09-11 13:13:00,86.4,59.9,30.09,ENE,63,0.0,0.0,41,0.00,,---,0.00,VWS V14.01,2013-09-11 17:13:00,
2013-09-11 13:18:00,86.7,59.5,30.09,NE,51,2.2,3.1,40,0.00,,---,0.00,VWS V14.01,2013-09-11 17:18:00,
2013-09-11 13:23:00,86.9,59.7,30.09,East,85,6.3,6.3,40,0.00,,---,0.00,VWS V14.01,2013-09-11 17:23:00,
2013-09-11 13:28:00,87.1,59.2,30.09,NE,46,6.3,6.3,39,0.00,,---,0.00,VWS V14.01,2013-09-11 17:28:00,
2013-09-11 13:33:00,87.6,59.6,30.09,NE,35,2.7,4.0,39,0.00,,---,0.00,VWS V14.01,2013-09-11 17:33:00,
2013-09-11 13:38:00,88.0,60.0,30.09,ENE,61,3.6,4.9,39,0.00,,---,0.00,VWS V14.01,2013-09-11 17:38:00,
2013-09-11 13:43:00,88.2,60.1,30.09,SW,231,3.1,8.1,39,0.00,,---,0.00,VWS V14.01,2013-09-11 17:43:00,
2013-09-11 13:48:00,88.7,60.6,30.09,SE,137,0.0,0.0,39,0.00,,---,0.00,VWS V14.01,2013-09-11 17:48:00,
2013-09-11 13:53:00,88.7,60.6,30.09,SSE,166,3.1,7.6,39,0.00,,---,0.00,VWS V14.01,2013-09-11 17:53:00,
2013-09-11 13:58:00,88.2,59.4,30.09,NNE,18,4.9,4.9,38,0.00,,---,0.00,VWS V14.01,2013-09-11 17:58:00,
2013-09-11 14:03:00,87.3,59.3,30.09,SSE,165,4.9,4.9,39,0.00,,---,0.00,VWS V14.01,2013-09-11 18:03:00,
2013-09-11 14:08:00,86.9,59.0,30.09,NNW,327,2.7,4.5,39,0.00,,---,0.00,VWS V14.01,2013-09-11 18:08:00,
2013-09-11 14:13:00,86.5,58.7,30.09,NNW,346,2.7,2.7,39,0.00,,---,0.00,VWS V14.01,2013-09-11 18:13:00,
2013-09-11 14:18:00,86.4,58.5,30.09,ESE,112,2.7,3.1,39,0.00,,---,0.00,VWS V14.01,2013-09-11 18:18:00,
2013-09-11 14:23:00,86.2,58.3,30.09,NE,54,4.5,6.3,39,0.00,,---,0.00,VWS V14.01,2013-09-11 18:23:00,
2013-09-11 14:28:00,85.6,58.6,30.09,ENE,77,2.2,3.6,40,0.00,,---,0.00,VWS V14.01,2013-09-11 18:28:00,
2013-09-11 14:33:00,85.1,58.1,30.09,ENE,74,2.2,2.7,40,0.00,,---,0.00,VWS V14.01,2013-09-11 18:33:00,
2013-09-11 14:38:00,84.9,57.9,30.09,NW,318,0.0,3.6,40,0.00,,---,0.00,VWS V14.01,2013-09-11 18:38:00,
2013-09-11 14:43:00,84.7,58.5,30.09,ENE,77,0.0,0.0,41,0.00,,---,0.00,VWS V14.01,2013-09-11 18:43:00,
2013-09-11 14:48:00,84.7,58.5,30.06,ESE,109,2.2,3.6,41,0.00,,---,0.00,VWS V14.01,2013-09-11 18:48:00,
2013-09-11 14:53:00,84.9,58.6,30.06,NNE,33,0.0,3.6,41,0.00,,---,0.00,VWS V14.01,2013-09-11 18:53:00,
2013-09-11 14:58:00,85.3,58.9,30.06,NNE,23,3.1,5.4,41,0.00,,---,0.00,VWS V14.01,2013-09-11 18:58:00,
2013-09-11 15:03:00,86.0,58.9,30.06,ENE,78,4.0,4.0,40,0.00,,---,0.00,VWS V14.01,2013-09-11 19:03:00,
2013-09-11 15:08:00,86.5,59.4,30.06,ENE,61,0.0,3.1,40,0.00,,---,0.00,VWS V14.01,2013-09-11 19:08:00,
2013-09-11 15:13:00,87.1,59.2,30.06,North,357,4.0,5.8,39,0.00,,---,0.00,VWS V14.01,2013-09-11 19:13:00,
2013-09-11 15:18:00,87.3,59.3,30.06,ENE,72,4.0,4.0,39,0.00,,---,0.00,VWS V14.01,2013-09-11 19:18:00,
2013-09-11 15:23:00,87.4,59.5,30.06,NNE,32,2.2,2.2,39,0.00,,---,0.00,VWS V14.01,2013-09-11 19:23:00,
2013-09-11 15:28:00,87.6,59.6,30.06,NE,42,3.1,3.6,39,0.00,,---,0.00,VWS V14.01,2013-09-11 19:28:00,
2013-09-11 15:33:00,87.6,59.6,30.06,WSW,258,2.7,3.1,39,0.00,,---,0.00,VWS V14.01,2013-09-11 19:33:00,
2013-09-11 15:39:00,87.6,59.6,30.06,ENE,70,3.1,4.0,39,0.00,,---,0.00,VWS V14.01,2013-09-11 19:39:00,
2013-09-11 15:44:00,87.6,59.6,30.06,ESE,103,2.7,4.9,39,0.00,,---,0.00,VWS V14.01,2013-09-11 19:44:00,
2013-09-11 15:49:00,87.8,59.1,30.06,South,191,3.1,3.6,38,0.00,,---,0.00,VWS V14.01,2013-09-11 19:49:00,
2013-09-11 15:54:00,88.2,59.4,30.06,SE,140,3.6,7.2,38,0.00,,---,0.00,VWS V14.01,2013-09-11 19:54:00,
2013-09-11 15:59:00,87.4,59.5,30.06,North,357,2.7,5.4,39,0.00,,---,0.00,VWS V14.01,2013-09-11 19:59:00,
2013-09-11 16:04:00,86.9,59.0,30.06,West,263,0.0,3.6,39,0.00,,---,0.00,VWS V14.01,2013-09-11 20:04:00,
2013-09-11 16:09:00,86.4,58.5,30.06,NNW,333,2.7,2.7,39,0.00,,---,0.00,VWS V14.01,2013-09-11 20:09:00,
2013-09-11 16:14:00,86.5,58.7,30.06,North,3,0.0,2.7,39,0.00,,---,0.00,VWS V14.01,2013-09-11 20:14:00,
2013-09-11 16:19:00,86.9,59.0,30.06,South,189,3.6,6.3,39,0.00,,---,0.00,VWS V14.01,2013-09-11 20:19:00,
2013-09-11 16:24:00,87.1,59.2,30.06,ENE,57,5.8,5.8,39,0.00,,---,0.00,VWS V14.01,2013-09-11 20:24:00,
2013-09-11 16:29:00,87.1,59.2,30.06,North,11,3.6,3.6,39,0.00,,---,0.00,VWS V14.01,2013-09-11 20:29:00,
2013-09-11 16:34:00,86.9,59.0,30.06,NE,44,3.1,6.3,39,0.00,,---,0.00,VWS V14.01,2013-09-11 20:34:00,
2013-09-11 16:39:00,86.5,58.7,30.06,West,272,3.1,7.6,39,0.00,,---,0.00,VWS V14.01,2013-09-11 20:39:00,
2013-09-11 16:44:00,86.0,58.2,30.06,ENE,68,2.2,4.9,39,0.00,,---,0.00,VWS V14.01,2013-09-11 20:44:00,
2013-09-11 16:49:00,85.6,57.9,30.06,East,92,0.0,0.0,39,0.00,,---,0.00,VWS V14.01,2013-09-11 20:49:00,
2013-09-11 16:54:00,85.1,58.1,30.06,North,357,2.2,3.1,40,0.00,,---,0.00,VWS V14.01,2013-09-11 20:54:00,
2013-09-11 16:59:00,84.6,57.6,30.06,East,83,2.2,3.6,40,0.00,,---,0.00,VWS V14.01,2013-09-11 20:59:00,
2013-09-11 17:04:00,84.2,57.3,30.06,East,83,0.0,0.0,40,0.00,,---,0.00,VWS V14.01,2013-09-11 21:04:00,
2013-09-11 17:08:00,83.8,57.0,30.06,North,350,3.1,3.1,40,0.00,,---,0.00,VWS V14.01,2013-09-11 21:08:00,
2013-09-11 17:14:00,83.5,57.3,30.06,NE,54,0.0,2.7,41,0.00,,---,0.00,VWS V14.01,2013-09-11 21:14:00,
2013-09-11 17:19:00,83.3,57.2,30.06,North,6,0.0,0.0,41,0.00,,---,0.00,VWS V14.01,2013-09-11 21:19:00,
2013-09-11 17:24:00,83.1,57.0,30.06,North,6,0.0,0.0,41,0.00,,---,0.00,VWS V14.01,2013-09-11 21:24:00,
2013-09-11 17:29:00,82.9,56.8,30.06,North,0,0.0,0.0,41,0.00,,---,0.00,VWS V14.01,2013-09-11 21:29:00,
2013-09-11 17:34:00,82.9,56.8,30.03,NE,51,0.0,2.7,41,0.00,,---,0.00,VWS V14.01,2013-09-11 21:34:00,
2013-09-11 17:39:00,82.8,56.7,30.03,North,0,0.0,0.0,41,0.00,,---,0.00,VWS V14.01,2013-09-11 21:39:00,
2013-09-11 17:44:00,82.9,57.5,30.03,North,0,0.0,0.0,42,0.00,,---,0.00,VWS V14.01,2013-09-11 21:44:00,
2013-09-11 17:49:00,82.9,57.5,30.06,East,86,0.0,3.1,42,0.00,,---,0.00,VWS V14.01,2013-09-11 21:49:00,
2013-09-11 17:54:00,82.9,57.5,30.06,North,357,0.0,0.0,42,0.00,,---,0.00,VWS V14.01,2013-09-11 21:54:00,
2013-09-11 17:59:00,82.8,57.3,30.06,NE,50,2.7,2.7,42,0.00,,---,0.00,VWS V14.01,2013-09-11 21:59:00,
2013-09-11 18:04:00,82.9,58.2,30.06,ENE,72,0.0,0.0,43,0.00,,---,0.00,VWS V14.01,2013-09-11 22:04:00,
2013-09-11 18:09:00,82.9,58.2,30.06,NW,304,0.0,0.0,43,0.00,,---,0.00,VWS V14.01,2013-09-11 22:09:00,
2013-09-11 18:14:00,82.9,58.2,30.06,NE,54,2.7,2.7,43,0.00,,---,0.00,VWS V14.01,2013-09-11 22:14:00,
2013-09-11 18:19:00,82.8,57.3,30.06,NW,309,0.0,0.0,42,0.00,,---,0.00,VWS V14.01,2013-09-11 22:19:00,
2013-09-11 18:24:00,82.8,57.3,30.06,NE,38,0.0,0.0,42,0.00,,---,0.00,VWS V14.01,2013-09-11 22:24:00,
2013-09-11 18:29:00,82.4,57.0,30.06,NE,37,0.0,0.0,42,0.00,,---,0.00,VWS V14.01,2013-09-11 22:29:00,
2013-09-11 18:34:00,82.0,57.4,30.03,NE,55,0.0,2.2,43,0.00,,---,0.00,VWS V14.01,2013-09-11 22:34:00,
2013-09-11 18:39:00,81.7,57.0,30.03,North,0,0.0,0.0,43,0.00,,---,0.00,VWS V14.01,2013-09-11 22:39:00,
2013-09-11 18:44:00,81.5,56.9,30.03,NNE,24,0.0,0.0,43,0.00,,---,0.00,VWS V14.01,2013-09-11 22:44:00,
2013-09-11 18:49:00,81.1,57.2,30.03,ESE,119,0.0,0.0,44,0.00,,---,0.00,VWS V14.01,2013-09-11 22:49:00,
2013-09-11 18:54:00,81.0,57.0,30.03,ENE,77,0.0,0.0,44,0.00,,---,0.00,VWS V14.01,2013-09-11 22:54:00,
2013-09-11 18:59:00,80.8,56.9,30.03,NNE,21,0.0,0.0,44,0.00,,---,0.00,VWS V14.01,2013-09-11 22:59:00,
2013-09-11 19:04:00,80.6,56.7,30.03,NNE,21,0.0,0.0,44,0.00,,---,0.00,VWS V14.01,2013-09-11 23:04:00,
2013-09-11 19:09:00,80.4,57.2,30.03,NNE,21,0.0,0.0,45,0.00,,---,0.00,VWS V14.01,2013-09-11 23:09:00,
2013-09-11 19:14:00,80.2,57.0,30.03,NNE,21,0.0,0.0,45,0.00,,---,0.00,VWS V14.01,2013-09-11 23:14:00,
2013-09-11 19:19:00,80.1,56.8,30.03,NNE,21,0.0,0.0,45,0.00,,---,0.00,VWS V14.01,2013-09-11 23:19:00,
2013-09-11 19:24:00,79.9,58.5,30.03,NNE,21,0.0,0.0,48,0.00,,---,0.00,VWS V14.01,2013-09-11 23:24:00,
2013-09-11 19:29:00,79.5,57.5,30.03,NNE,21,0.0,0.0,47,0.00,,---,0.00,VWS V14.01,2013-09-11 23:29:00,
2013-09-11 19:34:00,79.3,58.0,30.03,North,349,0.0,0.0,48,0.00,,---,0.00,VWS V14.01,2013-09-11 23:34:00,
2013-09-11 19:39:00,79.0,57.0,30.03,ENE,71,0.0,0.0,47,0.00,,---,0.00,VWS V14.01,2013-09-11 23:39:00,
2013-09-11 19:44:00,78.8,56.9,30.03,ENE,71,0.0,0.0,47,0.00,,---,0.00,VWS V14.01,2013-09-11 23:44:00,
2013-09-11 19:49:00,78.4,57.1,30.06,ENE,71,0.0,0.0,48,0.00,,---,0.00,VWS V14.01,2013-09-11 23:49:00,
2013-09-11 19:54:00,78.1,58.0,30.06,ENE,71,0.0,0.0,50,0.00,,---,0.00,VWS V14.01,2013-09-11 23:54:00,
2013-09-11 19:59:00,77.7,57.1,30.06,ENE,71,0.0,0.0,49,0.00,,---,0.00,VWS V14.01,2013-09-11 23:59:00,
2013-09-11 20:04:00,77.4,56.7,30.06,ENE,71,0.0,0.0,49,0.00,,---,0.00,VWS V14.01,2013-09-12 00:04:00,
2013-09-11 20:09:00,77.2,57.1,30.06,ENE,71,0.0,0.0,50,0.00,,---,0.00,VWS V14.01,2013-09-12 00:09:00,
2013-09-11 20:14:00,77.0,57.5,30.06,ENE,71,0.0,0.0,51,0.00,,---,0.00,VWS V14.01,2013-09-12 00:14:00,
2013-09-11 20:19:00,76.6,57.2,30.06,ENE,71,0.0,0.0,51,0.00,,---,0.00,VWS V14.01,2013-09-12 00:19:00,
2013-09-11 20:24:00,76.6,57.7,30.06,ENE,71,0.0,0.0,52,0.00,,---,0.00,VWS V14.01,2013-09-12 00:24:00,
2013-09-11 20:29:00,76.5,57.0,30.06,ENE,71,0.0,0.0,51,0.00,,---,0.00,VWS V14.01,2013-09-12 00:29:00,
2013-09-11 20:34:00,76.3,57.4,30.03,ENE,71,0.0,0.0,52,0.00,,---,0.00,VWS V14.01,2013-09-12 00:34:00,
2013-09-11 20:39:00,76.1,57.2,30.03,ENE,71,0.0,0.0,52,0.00,,---,0.00,VWS V14.01,2013-09-12 00:39:00,
2013-09-11 20:44:00,76.1,57.2,30.03,ENE,71,0.0,0.0,52,0.00,,---,0.00,VWS V14.01,2013-09-12 00:44:00,
2013-09-11 20:49:00,75.9,57.0,30.06,ENE,73,0.0,0.0,52,0.00,,---,0.00,VWS V14.01,2013-09-12 00:49:00,
2013-09-11 20:54:00,75.7,56.9,30.06,ENE,71,0.0,0.0,52,0.00,,---,0.00,VWS V14.01,2013-09-12 00:54:00,
2013-09-11 20:59:00,75.7,56.9,30.06,ENE,71,0.0,0.0,52,0.00,,---,0.00,VWS V14.01,2013-09-12 00:59:00,
2013-09-11 21:04:00,75.7,57.4,30.06,ENE,71,0.0,0.0,53,0.00,,---,0.00,VWS V14.01,2013-09-12 01:04:00,
2013-09-11 21:09:00,75.6,57.2,30.06,ENE,71,0.0,0.0,53,0.00,,---,0.00,VWS V14.01,2013-09-12 01:09:00,
2013-09-11 21:14:00,75.6,57.2,30.06,ENE,71,0.0,0.0,53,0.00,,---,0.00,VWS V14.01,2013-09-12 01:14:00,
2013-09-11 21:19:00,75.4,57.1,30.06,ENE,71,0.0,0.0,53,0.00,,---,0.00,VWS V14.01,2013-09-12 01:19:00,
2013-09-11 21:24:00,75.4,57.1,30.06,ENE,71,0.0,0.0,53,0.00,,---,0.00,VWS V14.01,2013-09-12 01:24:00,
2013-09-11 21:29:00,75.2,56.9,30.06,ENE,71,0.0,0.0,53,0.00,,---,0.00,VWS V14.01,2013-09-12 01:29:00,
2013-09-11 21:34:00,75.0,56.8,30.06,ENE,71,0.0,0.0,53,0.00,,---,0.00,VWS V14.01,2013-09-12 01:34:00,
2013-09-11 21:39:00,75.0,57.3,30.06,ENE,71,0.0,0.0,54,0.00,,---,0.00,VWS V14.01,2013-09-12 01:39:00,
2013-09-11 21:44:00,74.8,57.1,30.06,ENE,71,0.0,0.0,54,0.00,,---,0.00,VWS V14.01,2013-09-12 01:44:00,
2013-09-11 21:49:00,74.7,56.9,30.06,ENE,71,0.0,0.0,54,0.00,,---,0.00,VWS V14.01,2013-09-12 01:49:00,
2013-09-11 21:54:00,74.7,56.9,30.06,ENE,71,0.0,0.0,54,0.00,,---,0.00,VWS V14.01,2013-09-12 01:54:00,
2013-09-11 21:59:00,74.5,56.8,30.06,ENE,71,0.0,0.0,54,0.00,,---,0.00,VWS V14.01,2013-09-12 01:59:00,
2013-09-11 22:04:00,74.3,56.6,30.06,ENE,71,0.0,0.0,54,0.00,,---,0.00,VWS V14.01,2013-09-12 02:04:00,
2013-09-11 22:09:00,74.3,57.1,30.06,ENE,71,0.0,0.0,55,0.00,,---,0.00,VWS V14.01,2013-09-12 02:09:00,
2013-09-11 22:14:00,74.1,56.9,30.06,ENE,71,0.0,0.0,55,0.00,,---,0.00,VWS V14.01,2013-09-12 02:14:00,
2013-09-11 22:19:00,73.9,56.8,30.06,ENE,71,0.0,0.0,55,0.00,,---,0.00,VWS V14.01,2013-09-12 02:19:00,
2013-09-11 22:24:00,73.8,56.6,30.06,ENE,71,0.0,0.0,55,0.00,,---,0.00,VWS V14.01,2013-09-12 02:24:00,
2013-09-11 22:29:00,73.6,56.4,30.06,ENE,71,0.0,0.0,55,0.00,,---,0.00,VWS V14.01,2013-09-12 02:29:00,
2013-09-11 22:34:00,73.4,56.3,30.06,ENE,71,0.0,0.0,55,0.00,,---,0.00,VWS V14.01,2013-09-12 02:34:00,
2013-09-11 22:39:00,73.4,56.3,30.06,ENE,71,0.0,0.0,55,0.00,,---,0.00,VWS V14.01,2013-09-12 02:39:00,
2013-09-11 22:44:00,73.2,56.6,30.06,ENE,71,0.0,0.0,56,0.00,,---,0.00,VWS V14.01,2013-09-12 02:44:00,
2013-09-11 22:49:00,73.0,56.4,30.06,ENE,71,0.0,0.0,56,0.00,,---,0.00,VWS V14.01,2013-09-12 02:49:00,
2013-09-11 22:54:00,73.0,56.9,30.06,ENE,71,0.0,0.0,57,0.00,,---,0.00,VWS V14.01,2013-09-12 02:54:00,
2013-09-11 22:59:00,72.9,56.8,30.06,ENE,71,0.0,0.0,57,0.00,,---,0.00,VWS V14.01,2013-09-12 02:59:00,
2013-09-11 23:04:00,72.7,56.6,30.06,ENE,71,0.0,0.0,57,0.00,,---,0.00,VWS V14.01,2013-09-12 03:04:00,
2013-09-11 23:09:00,72.7,56.6,30.06,ENE,71,0.0,0.0,57,0.00,,---,0.00,VWS V14.01,2013-09-12 03:09:00,
2013-09-11 23:14:00,72.5,56.4,30.06,ENE,71,0.0,0.0,57,0.00,,---,0.00,VWS V14.01,2013-09-12 03:14:00,
2013-09-11 23:19:00,72.5,56.4,30.06,ENE,71,0.0,0.0,57,0.00,,---,0.00,VWS V14.01,2013-09-12 03:19:00,
2013-09-11 23:24:00,72.3,56.2,30.06,ENE,71,0.0,0.0,57,0.00,,---,0.00,VWS V14.01,2013-09-12 03:24:00,
2013-09-11 23:29:00,72.1,56.6,30.06,ENE,71,0.0,0.0,58,0.00,,---,0.00,VWS V14.01,2013-09-12 03:29:00,
2013-09-11 23:34:00,72.1,56.6,30.06,ENE,71,0.0,0.0,58,0.00,,---,0.00,VWS V14.01,2013-09-12 03:34:00,
2013-09-11 23:39:00,72.1,56.6,30.06,ENE,71,0.0,0.0,58,0.00,,---,0.00,VWS V14.01,2013-09-12 03:39:00,
2013-09-11 23:44:00,72.0,56.4,30.06,ENE,71,0.0,0.0,58,0.00,,---,0.00,VWS V14.01,2013-09-12 03:44:00,
2013-09-11 23:49:00,72.0,56.9,30.06,ENE,71,0.0,0.0,59,0.00,,---,0.00,VWS V14.01,2013-09-12 03:49:00,
2013-09-11 23:54:00,72.0,56.9,30.06,ENE,71,0.0,0.0,59,0.00,,---,0.00,VWS V14.01,2013-09-12 03:54:00,
2013-09-11 23:59:00,71.8,56.7,30.06,ENE,71,0.0,0.0,59,0.00,,---,0.00,VWS V14.01,2013-09-12 03:59:00,